Location: ??????
(38.6173°N, 24.1093°E)
Time: 23:34:03
(UTC+00:00)

Daily predictions for brighter satellites

Satellite Brightness Start Highest point End
(mag) Time Altitude Azimuth Time Altitude Azimuth Time Altitude Azimuth
NOAA 12 4.1 15:24:27 10° SSE 15:29:45 76° ENE 15:35:06 10° N
H-2A R/B 3.0 15:26:33 10° ESE 15:30:51 26° ENE 15:35:04 10° NNE
USA 307 3.6 15:33:27 10° WSW 15:37:38 51° NW 15:41:49 10° NE
NOSS 2-1 (C) 3.7 15:37:14 10° SW 15:40:34 47° NW 15:43:42 10° NNE
USA 234 3.5 15:34:14 10° SE 15:40:47 79° SW 15:47:21 10° NW
Cosmos 1777 Rocket 4.2 15:36:00 10° N 15:41:09 52° ENE 15:46:18 10° SE
ATLAS CENTAUR R/B 2.2 15:38:01 10° SW 15:41:52 48° NW 15:46:02 10° NNE
Lacrosse 5 2.3 15:39:50 10° NNW 15:44:41 42° NE 15:49:31 10° ESE
Cosmos 1939 Rocket 2.9 15:41:00 10° SSE 15:45:06 75° ENE 15:49:14 10° N
ATLAS CENTAUR R/B 4.0 15:35:14 10° SSW 15:48:13 52° SE 15:53:19 11° ENE
NOSS 2-1 (D) 4.2 15:46:39 10° WSW 15:49:49 36° NW 15:52:52 10° NNE
SKYMED 2 4.5 15:47:36 10° NE 15:51:23 28° E 15:55:07 10° SSE
GEOS 3 Rocket 4.4 15:48:11 10° ESE 15:52:44 31° NE 15:57:15 10° NNW
Okean 3 Rocket 3.6 15:49:33 10° N 15:54:06 87° E 15:58:35 10° S
CZ-2D R/B 3.5 15:53:40 10° SE 15:57:20 44° ENE 16:01:01 10° N
ATLAS 3B R/B 3.6 15:51:31 10° NW 15:58:39 58° WSW 16:06:01 10° SSE
PSLV R/B 3.7 15:55:26 10° SSE 15:59:02 55° ENE 16:02:39 10° N
USA 308 4.1 15:55:53 10° WSW 15:59:49 35° NW 16:03:43 10° NNE
Cosmos 1862 3.6 15:57:03 10° NNW 16:01:00 70° W 16:04:58 10° S
CZ-2C R/B 4.2 15:57:49 10° S 16:02:46 45° W 16:07:31 10° NNW
Centaur D-1A AC-32 4.5 15:57:37 10° WSW 16:03:39 22° SSW 16:06:49 10° SE
SL-4 R/B 3.6 15:59:18 10° WNW 16:03:44 43° SW 16:08:16 10° SSE
ATLAS 5 CENTAUR R/B 3.8 15:58:16 10° NW 16:03:53 44° WSW 16:10:22 10° S
Cosmos 1500 Rocket 4.2 16:02:47 10° NNE 16:06:49 33° ENE 16:10:49 10° SE
SJ 16-02 1.2 16:04:54 10° NNW 16:09:16 71° ENE 16:13:37 10° SSE
NOAA 6 4.4 16:04:09 10° S 16:09:16 70° WSW 16:14:26 10° NNW
CZ-4B R/B 3.4 16:04:50 10° SE 16:10:04 47° ENE 16:15:15 10° N
CORIOLIS 4.3 16:05:57 10° S 16:11:19 78° WSW 16:16:44 10° NNW
Cosmos 1842 Rocket 3.6 16:08:18 10° S 16:12:43 88° WNW 16:17:11 10° N
Cosmos 1833 Rocket 3.5 16:09:12 10° SSE 16:14:01 30° ESE 16:17:02 19° ENE
TIMED 4.4 16:14:38 10° S 16:18:58 74° ESE 16:23:04 12° NNE
Cosmos 540 Rocket 4.4 16:17:44 10° SSE 16:21:47 24° E 16:22:35 23° E
Cosmos 2026 Rocket 4.3 16:20:31 10° N 16:26:16 39° ENE 16:31:55 10° SE
Meteor 1-25 Rocket 4.4 16:22:21 10° N 16:27:41 46° ENE 16:33:01 10° SSE
Cosmos 1606 4.4 16:25:56 10° SW 16:29:19 33° WNW 16:32:46 10° NNW
ARGOS 3.2 16:25:06 10° SSE 16:30:22 55° ENE 16:35:39 10° N
Okean O Rocket 1.6 16:28:57 10° SSE 16:33:17 57° ENE 16:37:39 10° N
Atlas Centaur 2 3.3 16:35:31 10° SW 16:38:05 18° S 16:40:25 12° SSE
COSMO-SKYMED 1 2.6 16:35:12 10° N 16:39:34 80° WNW 16:43:53 10° SSW
Cosmos 1782 3.1 16:39:47 10° SSE 16:43:14 43° ESE 16:43:14 43° ESE
Cosmos 841 Rocket 4.3 16:39:52 10° SSE 16:43:42 30° ESE 16:43:42 30° ESE
Cosmos 1763 Rocket 3.3 16:40:31 10° SSW 16:45:33 78° ESE 16:48:40 24° NNE
CZ-4C R/B 3.1 16:46:51 51° SSE 16:46:51 51° SSE 16:49:26 10° S
ERBS 4.1 16:43:39 10° W 16:46:17 23° NW 16:47:12 20° NNW
Cosmos 2221 4.5 16:43:42 10° SW 16:47:24 29° WNW 16:51:10 10° NNW
Feng Yun 1-1 Rocket 4.3 16:48:29 10° SSE 16:54:16 61° ENE 17:00:06 10° N
deb Chang Zheng 4 3.9 16:50:16 10° S 16:54:30 64° WSW 16:58:48 10° NNW
Cosmos 1933 3.4 16:51:15 10° S 16:55:19 76° W 16:57:32 26° N
CZ-2C R/B 3.0 16:50:17 10° N 16:55:28 63° WNW 17:00:33 10° SSW
Meteor 2-21 4.3 16:49:41 10° N 16:55:43 61° E 17:01:41 10° SSE
IRAS Rocket 4.3 16:56:08 44° ENE 16:57:05 49° ESE 17:02:24 10° S
Cosmos 1340 Rocket 3.4 16:54:55 10° NNW 16:58:54 57° W 17:02:53 10° S
Cosmos 990 Rocket 3.8 16:58:20 10° NNW 17:03:34 74° ENE 17:06:22 27° SSE
Landsat 5 4.2 17:02:19 17° N 17:05:27 53° WNW 17:09:25 10° SSW
USA 229 DEB 4.2 16:59:01 10° NNW 17:06:07 47° NE 17:07:27 43° ENE
USA 229 4.2 16:59:07 10° NNW 17:06:12 46° NE 17:07:28 43° ENE
H-2A R/B 3.6 17:05:10 10° SSW 17:10:03 37° W 17:14:52 10° NNW
Cosmos 1092 Rocket 4.2 17:04:06 10° N 17:10:27 74° W 17:16:45 10° S
COSMOS 2455 3.2 17:06:17 10° S 17:11:24 46° SE 17:11:24 46° SE
COSMOS 2406 3.1 17:08:18 10° SSW 17:14:02 79° ESE 17:15:09 59° NE
Meteor 1-26 Rocket 4.3 17:09:13 10° S 17:15:03 83° W 17:20:06 15° N
Cosmos 1697 Rocket 3.3 17:10:32 10° NNW 17:14:22 39° NNE 17:14:22 39° NNE
GPS 2-04 Rocket1 4.4 17:12:39 10° SW 17:15:01 25° SSW 17:15:01 25° SSW
Cosmos 1980 Rocket 4.2 17:11:37 10° N 17:12:43 15° N 17:12:43 15° N
Cosmos 2142 Rocket 4.3 17:10:33 10° S 17:16:37 76° E 17:19:31 33° NNE
Cosmos 2082 Rocket 2.9 17:12:30 10° S 17:16:18 38° SSE 17:16:18 38° SSE
Cosmos 44 3.7 17:17:28 10° NNW 17:20:56 48° NNW 17:20:56 48° NNW
Lacrosse 5 3.6 17:23:03 10° WNW 17:27:31 31° WSW 17:31:32 12° S
NOSS 3-1 (A) 4.0 17:21:55 10° NNW 17:29:38 69° NE 17:31:39 54° ESE
Cosmos 1898 Rocket 3.9 17:27:07 10° NNW 17:31:16 56° NNW 17:31:16 56° NNW
NOSS 3-1 (C) 4.3 17:26:43 10° NW 17:34:32 75° WSW 17:43:17 11° SSE
Cosmos 1656 4.4 17:29:41 10° NNW 17:35:03 52° WSW 17:40:26 10° S
Meteor 2-21 Rocket 4.4 17:32:30 10° N 17:38:39 81° W 17:44:42 10° S
Cosmos 2279 Rocket 4.1 17:35:03 10° SSW 17:41:16 74° W 17:43:29 42° N
Cosmos 1833 Rocket 4.0 17:52:43 10° SW 17:57:48 35° WNW 17:58:47 33° NW
CZ-4C R/B 4.3 17:53:01 10° NNW 17:56:09 25° N 17:56:09 25° N
